Pila Airport

Jump to: basic info | weather | runways | comments

Related pages: nearby airports | nearby navaids | notams | map

Basic information (top)

Codes: EPPI
Location: lon 53.169998, lat 16.712500, elev 259 ft / 79 m msl
Status: small_airport

Weather (top)

Current conditions for Poznań-Ławica Airport 45nm (84km) S (rec'd 2014/10/02 00:00Z):

EPPO 020000Z 07002KT 3000 BR SCT004 BKN009 12/12 Q1028

Airport forecast for Poznań-Ławica Airport 45nm (84km) S (rec'd 2014/10/01 00:35Z):

TAF EPPO 012330Z 0200/0224 07004KT 4000 BR BKN005 
      TEMPO 0200/0206 1300 BR BKN002 
      BECMG 0207/0209 8000 NSW BKN010 
      TEMPO 0209/0216 BKN015 
      TEMPO 0216/0224 4000 BR

Runways (top)

03/21: 7,876 x 195 ft (2,401 x 59 m) — other (PEM) — lighted

Latest comments (top)

No comments yet for Pila Airport

More... (top)

See also NOTAMs and nearby airports and navaids, or visit the Pila Airport page at the main OurAirports website..